Location: Unspecified
(56.1137°N, 0.0000°E)
Time: 04:18:57
(UTC+00:00)

TIGRISAT - Visible Passes

Search period start: 04 April 2026 00:00
Search period end: 14 April 2026 00:00
Orbit: 580 x 648 km, 97.8° (Epoch: 28 March)

Date Brightness Start Highest point End Pass type
(mag) Time Alt. Az. Time Alt. Az. Time Alt. Az.
4 Apr ? 01:44:36 14° ESE 01:47:43 31° ENE 01:51:35 10° N visible
4 Apr ? 03:21:38 26° SSW 03:23:37 44° W 03:27:50 10° NNW visible
5 Apr ? 01:59:58 16° SE 02:03:02 40° ENE 02:07:10 10° N visible
5 Apr ? 03:37:00 21° SW 03:39:08 33° W 03:43:09 10° NNW visible
6 Apr ? 00:41:39 10° ENE 00:43:19 12° NE 00:44:59 10° NNE visible
6 Apr ? 02:15:21 18° SE 02:18:23 53° ENE 02:22:42 10° N visible
6 Apr ? 03:52:22 16° SW 03:54:42 25° W 03:58:22 10° NW visible
7 Apr ? 00:56:02 10° E 00:58:30 15° NE 01:01:00 10° NNE visible
7 Apr ? 02:30:42 19° SSE 02:33:46 71° ENE 02:38:12 10° NNW visible
7 Apr ? 04:07:43 12° SW 04:10:17 19° W 04:13:29 10° NW visible
8 Apr ? 01:10:41 10° E 01:13:43 19° NE 01:16:47 10° N visible
8 Apr ? 02:46:04 19° SSE 02:49:10 87° WSW 02:53:38 10° NNW visible
8 Apr ? 04:23:27 10° WSW 04:25:54 15° W 04:28:22 10° NW visible
9 Apr ? 01:25:30 10° ESE 01:28:57 24° ENE 01:32:29 10° N visible
9 Apr ? 03:01:26 18° S 03:04:36 65° WSW 03:09:02 10° NNW visible
10 Apr ? 01:40:26 10° ESE 01:44:13 30° ENE 01:48:05 10° N visible
10 Apr ? 03:16:47 16° S 03:20:04 48° W 03:24:23 10° NNW visible
11 Apr ? 01:55:28 10° SE 01:59:31 38° ENE 02:03:39 10° N visible
11 Apr ? 03:32:08 13° SSW 03:35:33 36° W 03:39:41 10° NNW visible
12 Apr ? 00:38:14 10° ENE 00:39:47 12° NE 00:41:21 10° NNE visible
12 Apr ? 02:10:36 10° SE 02:14:50 50° ENE 02:19:09 10° N visible
12 Apr ? 03:47:29 11° SSW 03:51:05 27° W 03:54:54 10° NNW visible
13 Apr ? 00:52:32 10° E 00:54:56 15° NE 00:57:23 10° NNE visible
13 Apr ? 02:25:50 10° SSE 02:30:10 67° ENE 02:34:37 10° N visible
13 Apr ? 04:03:18 10° SW 04:06:38 21° W 04:10:01 10° NW visible
